Regional Weather Roundup
Issued by NWS

Home | Current Version | Previous Version | Graphics & Text | Print | Product List | Glossary On
Versions: 1 2 3 4 5 6 7 8 9 10 11 12 13 14 15 16 17 18 19 20 21 22 23 24 25 26 27 28 29 30 31 32 33 34 35 36 37 38 39 40 41 42 43 44 45 46 47 48 49 50
000
ASUS43 KLSX 191307
RWRMO

WEATHER SUMMARY FOR MISSOURI
NATIONAL WEATHER SERVICE SPRINGFIELD MO
800 AM CDT SUN APR 19 2015

NOTE: "FAIR" INDICATES FEW OR NO CLOUDS BELOW 12,000 FEET WITH NO
       SIGNIFICANT WEATHER AND/OR OBSTRUCTIONS TO VISIBILITY.
       CURRENT SKY AND/OR WEATHER CONDITIONS ARE NOT AVAILABLE FOR
       CHILLICOTHE AND FARMINGTON.

MOZ001>031-035>038-043-044-053-054-191400-
...NORTHERN AND WESTERN MISSOURI...

CITY           SKY/WX    TMP DP  RH WIND       PRES   REMARKS
KANSAS CTY INT CLOUDY    54  53  97 N5        29.70S
KANSAS C DTWN  CLOUDY    56  53  90 VRB3      29.71R
LEE`S SUMMIT   CLOUDY    55  54  96 W8        29.70R FOG
ST JOSEPH      CLOUDY    56  53  90 N5        29.72R
CHILLICOTHE      N/A     59  57  93 NE3       29.71F
KIRKSVILLE     CLOUDY    58  57  97 NW5       29.72S

$$
MOZ066>068-077>081-088>096-101>105-191400-
...SOUTHWEST MISSOURI...

CITY           SKY/WX    TMP DP  RH WIND       PRES   REMARKS
SPRINGFIELD    SUNNY     56  52  86 NE6       29.68F
JOPLIN         PTSUNNY   57  52  83 VRB5      29.69S

$$
MOZ032>034-039>042-045>050-055>058-069>072-191400-
...CENTRAL MISSOURI...

CITY           SKY/WX    TMP DP  RH WIND       PRES   REMARKS
COLUMBIA       CLOUDY    57  56  96 S5        29.69F
JEFFERSON CITY CLOUDY    56  55  97 CALM      29.69F
ROLLA          LGT RAIN  59  57  93 W7        29.67F FOG
SEDALIA        FOG       57  56  96 CALM      29.70F VSB 1/2
WHITEMAN AFB   FOG       59  59 100 E7        29.66F VSB 3/4
WARRENSBURG    CLOUDY    59  57  94 E6        29.66F
OSAGE BEACH    CLOUDY    55  54  94 SE3       29.70S

$$
MOZ051-052-059>065-191400-
...EAST CENTRAL MISSOURI...

CITY           SKY/WX    TMP DP  RH WIND       PRES   REMARKS
ST LOUIS INTL  CLOUDY    66  54  65 SE5       29.68F
SPIRIT OF STL  CLOUDY    62  58  86 CALM      29.67F
ST CHARLES     CLOUDY    63  53  70 E3        29.68F

$$
MOZ072>076-082>087-097>100-106>115-191400-
...SOUTH CENTRAL AND SOUTHEAST MISSOURI...

CITY           SKY/WX    TMP DP  RH WIND       PRES   REMARKS
CAPE GIRARDEAU LGT RAIN  64  64 100 S5        29.64F FOG
FARMINGTON     CLOUDY    61  59  94 E5        29.69F
POPLAR BLUFF   CLOUDY    65  62  90 SE6       29.63F
WEST PLAINS    CLOUDY    61  57  87 NW6       29.69S

$$


USA.gov is the U.S. government's official web portal to all federal, state and local government web resources and services.